Miscellaneous Local Product
Issued by NWS North Platte, NE

Home | Current Version | Previous Version | Text Only | Print | Product List | Glossary On
Versions: 1 2 3 4 5 6 7 8 9 10 11 12 13 14 15 16 17 18 19 20 21 22 23 24 25 26 27 28 29 30 31 32 33 34 35 36 37 38 39 40 41 42 43 44 45 46 47 48 49 50
736
AXUS43 KLBF 292110
MISLBF


WESTERN AND NORTH CENTRAL NEBRASKA HOURLY WEATHER ROUNDUP
NATIONAL WEATHER SERVICE NORTH PLATTE NE
400 PM CDT WED MAR 29 2017

NOTE: "FAIR" INDICATES FEW OR NO CLOUDS BELOW 12,000 FEET WITH NO
SIGNIFICANT WEATHER AND/OR OBSTRUCTIONS TO VISIBILITY.

NOTE: STATIONS NOT REPORTING VARIABLES SUCH AS SKY/WEATHER OR
PRESSURE ARE PROVIDED BY RAWS AND APRS NETWORKS AND ARE NOT UNDER
NATIONAL WEATHER SERVICE QUALITY CONTROL.

...OBSERVATIONS IN AND NEAR THE EASTERN PANHANDLE OF NEBRASKA...

CITY           SKY/WX    TMP DP  RH WIND       PRES   REMARKS
PINE RIDGE     CLOUDY    52  40  63 E6        30.00F
CHADRON        CLOUDY    55  38  52 N8        29.98F
ALLIANCE       CLOUDY    50  39  66 N13       29.98F
SIDNEY         CLOUDY    48  37  65 N20       29.98F
CRESCENT LAKE    N/A     49  37  63 NE13G22     N/A
$$

...OBSERVATIONS IN NORTHERN NEBRASKA AND FAR SOUTHERN SOUTH DAKOTA...

CITY           SKY/WX    TMP DP  RH WIND       PRES   REMARKS
WINNER         FAIR      54  39  57 E21G26    30.01F
VALENTINE      CLOUDY    51  38  60 NE15      29.99F
THEDFORD       CLOUDY    48  41  76 NE16G22   29.98S
AINSWORTH      CLOUDY    47  41  78 NE15G21   29.99F
O`NEILL        CLOUDY    44  41  88 NE14G22   30.00F
ORD            LGT RAIN  43  39  86 NE17G24   29.92F FOG
BROKEN BOW     LGT RAIN  43  39  86 N14G24    29.92F
VALENTINE NWR    N/A     48  39  72 NE13        N/A
HALSEY           N/A     44  41  88 NE9         N/A
BUTTE            N/A     44  38  78 NE18        N/A
CHAMBERS         N/A     44  41  89 MISG        N/A
EWING            N/A     43  40  89 NE12G24     N/A
$$

...OBSERVATIONS IN SOUTHWEST NEBRASKA AND FAR NORTHEAST COLORADO...

CITY           SKY/WX    TMP DP  RH WIND       PRES   REMARKS
WRAY           CLOUDY    46  39  76 N17G26    29.97
HOLYOKE        MOCLDY    48  39  71 N17       29.96F
IMPERIAL       CLOUDY    46  39  76 N17       29.95F
OGALLALA       CLOUDY    49  40  71 N14       29.97F
NORTH PLATTE   CLOUDY    49  39  68 N23G29    29.93F
MCCOOK         LGT RAIN  45  42  89 N21G29    29.90F
LEXINGTON      LGT RAIN  44  40  86 NE21      29.90F
STAPLETON        N/A     44  40  87 NE5G16      N/A
GOTHENBURG       N/A     45  38  77 N15         N/A
CALLAWAY         N/A     43  40  89 NE15        N/A
$$

...OBSERVATIONS IN CENTRAL LINCOLN COUNTY AREA...

CITY           SKY/WX    TMP DP  RH WIND       PRES   REMARKS
N.P. AIRPORT   CLOUDY    49  39  68 N23G29    29.93F
N.P. DOWNTOWN    N/A     47  40  77 NE13G22     N/A
N.P. SOUTHEAST   N/A     47  40  76 N8G16       N/A
N.P. HILLCREST   N/A     47  40  77 NE21G30     N/A
$$

...SOME OBSERVATIONS FROM AROUND THE REGION...

CITY           SKY/WX    TMP DP  RH WIND       PRES   REMARKS
DENVER         MOSUNNY   54  32  43 N20G25    29.99F
LIMON          CLOUDY    44  37  76 N20G26    29.98S
ASPEN          MOSUNNY   48  21  34 VRB3      30.06F
LARAMIE        MOSUNNY   48  25  40 N14G25    30.03F
CASPER         SUNNY     55  27  34 W14G20    30.00F
CHEYENNE       MOSUNNY   51  24  34 NW16G29   30.00F
SCOTTSBLUFF    PTSUNNY   55  36  48 N15       29.98F
GRAND ISLAND   LGT RAIN  43  42  97 NE20G29   29.87F
OMAHA          RAIN      43  38  82 N17       29.89F
SIOUX FALLS    LGT RAIN  47  39  74 E24G33    30.05F
PIERRE         PTSUNNY   61  33  35 SE10      30.00F
RAPID CITY     MOSUNNY   55  38  52 VRB7      30.00F
BISMARCK       CLOUDY    61  38  42 S15G25    29.98F
KANSAS CITY    CLOUDY    55  52  89 E20G29    29.69F
HILL CITY      RAIN      43  42  97 N18G30    29.84F FOG
WICHITA        CLOUDY    59  53  80 S15       29.58S
DODGE CITY     LGT RAIN  42  39  89 N26G37    29.79R FOG
OKLAHOMA CITY  PTSUNNY   60  48  64 W16       29.72R
DALLAS         MOSUNNY   81  41  24 SW23      29.69F
AMARILLO       CLOUDY    46  42  86 N26G40    29.89S
$$




USA.gov is the U.S. government's official web portal to all federal, state and local government web resources and services.